Location: B?ogocice
(50.2413°N, 20.2361°E)
Time: 00:02:50
(UTC+00:00)

Cosmos 1607 - Pass Details

Date: 15 June 2024
Orbit: 910 x 991 km, 65.0° (Epoch: 18 July)

Event Time Altitude Azimuth Distance (km) Brightness Sun altitude
Rises 01:05:45 0° 319° (NW) 3,707 7.2 -9.6°
Reaches altitude 10° 01:08:21 10° 320° (NW) 2,749 6.6 -9.4°
Maximum altitude 01:14:50 90° 44° (NE) 980 4.1 -8.8°
Drops below altitude 10° 01:21:09 10° 142° (SE) 2,685 6.2 -8.2°
Sets 01:23:40 0° 142° (SE) 3,616 6.8 -8.0°
